Home   Weather   Cuiabá   Past weeks
Flag for Brazil

Past Weather in Cuiabá, Mato Grosso, Brazil — Yesterday and Last 2 Weeks

Now
79 °F

Passing clouds.


Feels Like: 82 °F
Forecast: 90 / 77 °F
Wind: 3 mph from South

Location: Cuiaba Aeroporto

Current Time: Apr 3, 2020 at 10:34:19 pm

Latest Report: Apr 3, 2020 at 10:00 pm


Visibility: N/A

Pressure: 29.89 "Hg

Humidity: 79%

Dew Point: 72 °F

Location of CuiabáLocation

Past Weather in Cuiabá — Graph

°F

Cuiabá Temperature Yesterday

Maximum temperature yesterday: 99 °F (at 2:00 pm)
Minimum temperature yesterday: 77 °F (at 1:00 am)
Average temperature yesterday: 86 °F

High & Low Weather Summary for the Past Weeks

 TemperatureHumidityPressure
High99 °F (Apr 2, 2:00 pm)94% (Mar 20, 6:00 pm)30.01 "Hg (Mar 20, 6:00 pm)
Low72 °F (Mar 20, 8:00 am)39% (Mar 31, 12:00 pm)29.74 "Hg (Mar 20, 4:00 pm)
Average82 °F76%29.87 "Hg
* Reported Mar 19 9:00 pm — Apr 3 9:00 pm, Cuiabá. Weather by CustomWeather, © 2020

Note: Actual official high and low records may vary slightly from our data, if they occured in-between our weather recording intervals... More about our weather records

Cuiabá Weather History for the Previous 24 Hours

Scroll right to see more
 ConditionsComfort  
Time TempWeatherWind HumidityBarometerVisibility
9:00 pm
Fri, Apr 3
79 °FClear.2 mph84%29.89 "Hg10 mi
8:00 pm79 °FPassing clouds.5 mph84%29.86 "HgN/A
7:00 pm81 °FPassing clouds.6 mph79%29.86 "HgN/A
6:00 pm82 °FPassing clouds.3 mph74%29.83 "HgN/A
5:00 pm84 °FPassing clouds.5 mph70%29.83 "HgN/A
4:00 pm84 °FPartly sunny.7 mph70%29.83 "HgN/A
3:00 pm86 °FPartly sunny.7 mph70%29.86 "HgN/A
2:00 pm86 °FPartly sunny.5 mph70%29.89 "HgN/A
1:00 pm82 °FBroken clouds.3 mph74%29.92 "HgN/A
12:00 pm79 °FPartly sunny.7 mph79%29.95 "HgN/A
11:00 am81 °FPartly sunny.7 mph74%29.98 "HgN/A
10:00 am77 °FLight rain. Partly sunny.13 mph83%29.98 "Hg3 mi
9:39 am81 °FLight rain. Partly sunny.12 mph79%29.98 "Hg2 mi
9:00 am84 °FPartly sunny.5 mph70%30.01 "HgN/A
8:00 am82 °FPassing clouds.5 mph74%29.98 "HgN/A
7:00 am81 °FSunny.3 mph79%29.95 "Hg10 mi
6:00 am77 °FSunny.5 mph89%29.92 "Hg10 mi
5:00 am77 °FClear.6 mph89%29.92 "Hg10 mi
4:00 am77 °FClear.2 mph89%29.89 "Hg10 mi
3:00 am77 °FClear.No wind89%29.89 "Hg10 mi
2:00 am77 °FPassing clouds.No wind89%29.89 "HgN/A
1:00 am81 °FPassing clouds.5 mph79%29.92 "HgN/A
12:00 am81 °FPassing clouds.3 mph79%29.95 "HgN/A
11:00 pm
Thu, Apr 2
81 °FPassing clouds.3 mph79%29.95 "HgN/A
10:00 pm82 °FClear.2 mph74%29.95 "Hg10 mi
Weather by CustomWeather, © 2020

See weather overview

Advertising